PP5MGT-13 Weather Reports


time (UTC)temp
F
wind
direction
speed
knots
gust
knots
rain 1hr
in
rain 24hr
in
rain mn
in
humidity
%
barometer
mb
20260507224139 0 0.0 0.0 0.00 0.00 0.00 86 1008.9
20260507222639 0 0.0 0.0 0.00 0.00 0.00 85 1008.9
20260507221138 75 0.0 0.0 0.00 0.00 0.00 85 1008.7
20260507215637 77 0.0 0.0 0.00 0.00 0.00 80 1008.2
20260507214137 78 0.0 0.0 0.00 0.00 0.00 79 1008.2
20260507212636 0 0.0 0.0 0.00 0.00 0.00 78 1008.1
20260507211135 79 0.0 0.0 0.00 0.00 0.00 76 1008.0
20260507205634 80 0.0 0.0 0.00 0.00 0.00 73 1007.5
20260507204134 80 0.0 0.0 0.00 0.00 0.00 72 1007.5
20260507202633 81 0.0 0.0 0.00 0.00 0.00 72 1007.4
20260507201133 81 0.0 0.0 0.00 0.00 0.00 71 1007.3
20260507195632 0 0.0 0.0 0.00 0.00 0.00 69 1007.3
20260507194131 82 0.0 0.0 0.00 0.00 0.00 69 1007.3
20260507192630 0 0.0 0.0 0.00 0.00 0.00 68 1007.3
20260507191129 0 0.0 0.0 0.00 0.00 0.00 68 1007.4
20260507185628 0 0.0 0.0 0.00 0.00 0.00 67 1007.5
20260507184127 0 0.0 0.0 0.00 0.00 0.00 67 1007.5
20260507182627 83 0.0 0.0 0.00 0.00 0.00 66 1007.6
20260507181126 0 0.0 0.0 0.00 0.00 0.00 67 1007.6
20260507175625 83 0.0 0.0 0.00 0.00 0.00 66 1008.2
20260507174123 82 0.0 0.0 0.00 0.00 0.00 66 1008.3
20260507172623 82 0.0 0.0 0.00 0.00 0.00 66 1008.5
20260507171122 82 0.0 0.0 0.00 0.00 0.00 66 1008.5
20260507165621 81 0.0 0.0 0.00 0.00 0.00 68 1009.3
20260507164120 0 0.0 0.0 0.00 0.00 0.00 68 1009.6
20260507162620 0 0.0 0.0 0.00 0.00 0.00 68 1009.8
20260507161118 0 0.0 0.0 0.00 0.00 0.00 68 1010.0
20260507155618 0 0.0 0.0 0.00 0.00 0.00 71 1011.1
20260507154117 0 0.0 0.0 0.00 0.00 0.00 71 1011.3
20260507154115 79 0.0 0.0 0.00 0.00 0.00 71 1011.3
20260507152616 0 0.0 0.0 0.00 0.00 0.00 71 1011.5
20260507151116 0 0.0 0.0 0.00 0.00 0.00 72 1011.7
20260507151114 79 0.0 0.0 0.00 0.00 0.00 72 1011.7
20260507145615 0 0.0 0.0 0.00 0.00 0.00 74 1012.8
20260507145613 78 0.0 0.0 0.00 0.00 0.00 74 1012.8
20260507144115 0 0.0 0.0 0.00 0.00 0.00 75 1013.0
20260507144113 78 0.0 0.0 0.00 0.00 0.00 75 1013.0
20260507142614 0 0.0 0.0 0.00 0.00 0.00 75 1013.1
20260507142612 78 0.0 0.0 0.00 0.00 0.00 75 1013.1
20260507141113 0 0.0 0.0 0.00 0.00 0.00 75 1013.2
20260507141111 78 0.0 0.0 0.00 0.00 0.00 75 1013.2
20260507135613 0 0.0 0.0 0.00 0.00 0.00 79 1014.0
20260507135610 76 0.0 0.0 0.00 0.00 0.00 79 1014.0
20260507134112 0 0.0 0.0 0.00 0.00 0.00 80 1014.1
20260507134109 76 0.0 0.0 0.00 0.00 0.00 80 1014.1
20260507132611 0 0.0 0.0 0.00 0.00 0.00 82 1014.2
20260507132608 76 0.0 0.0 0.00 0.00 0.00 82 1014.2
20260507131111 0 0.0 0.0 0.00 0.00 0.00 82 1014.2
20260507131108 75 0.0 0.0 0.00 0.00 0.00 82 1014.2
20260507125610 0 0.0 0.0 0.00 0.00 0.00 85 1014.4
20260507125607 75 0.0 0.0 0.00 0.00 0.00 85 1014.4
20260507124109 0 0.0 0.0 0.00 0.00 0.00 86 1014.4
20260507124106 75 0.0 0.0 0.00 0.00 0.00 86 1014.4
20260507122609 0 0.0 0.0 0.00 0.00 0.00 86 1014.5
20260507122605 74 0.0 0.0 0.00 0.00 0.00 86 1014.5
20260507121104 74 0.0 0.0 0.00 0.00 0.00 86 1014.5
20260507115602 73 0.0 0.0 0.00 0.00 0.00 89 1014.6
20260507114101 73 0.0 0.0 0.00 0.00 0.00 90 1014.6
20260507112601 73 0.0 0.0 0.00 0.00 0.00 91 1014.5
20260507111100 72 0.0 0.0 0.00 0.00 0.00 92 1014.5
20260507105559 72 0.0 0.0 0.00 0.00 0.00 93 1014.5
20260507104058 72 0.0 0.0 0.00 0.00 0.00 93 1014.5
20260507102556 72 0.0 0.0 0.00 0.00 0.00 94 1014.5
20260507101055 72 0.0 0.0 0.00 0.00 0.00 94 1014.5
20260507095554 72 0.0 0.0 0.00 0.00 0.00 95 1014.3
20260507094053 0 0.0 0.0 0.00 0.00 0.00 95 1014.3
20260507092553 0 0.0 0.0 0.00 0.00 0.00 95 1014.3
20260507091050 72 0.0 0.0 0.00 0.00 0.00 95 1014.4
20260507085548 72 0.0 0.0 0.00 0.00 0.00 95 1014.0
20260507084047 0 0.0 0.0 0.00 0.00 0.00 95 1014.0
20260507082547 0 0.0 0.0 0.00 0.00 0.00 95 1014.0
20260507081046 0 0.0 0.0 0.00 0.00 0.00 95 1014.0
20260507075544 72 0.0 0.0 0.00 0.00 0.00 96 1014.2
20260507074042 72 0.0 0.0 0.00 0.00 0.00 96 1014.2
20260507072542 72 0.0 0.0 0.00 0.00 0.00 96 1014.2
20260507071041 72 0.0 0.0 0.00 0.00 0.00 96 1014.2
20260507065540 72 0.0 0.0 0.00 0.00 0.00 96 1014.6
20260507064037 72 0.0 0.0 0.00 0.00 0.00 96 1014.7
20260507062535 72 0.0 0.0 0.00 0.00 0.00 96 1014.8
20260507061033 0 0.0 0.0 0.00 0.00 0.00 96 1014.8
20260507055533 0 0.0 0.0 0.00 0.00 0.00 95 1015.3
20260507054031 72 0.0 0.0 0.00 0.00 0.00 95 1015.4
20260507052530 72 0.0 0.0 0.00 0.00 0.00 95 1015.6
20260507051030 72 0.0 0.0 0.00 0.00 0.00 95 1015.6
20260507045529 73 0.0 0.0 0.00 0.00 0.00 94 1016.2
20260507044028 73 0.0 0.0 0.00 0.00 0.00 94 1016.3
20260507042527 73 0.0 0.0 0.00 0.00 0.00 94 1016.3
20260507041026 73 0.0 0.0 0.00 0.00 0.00 94 1016.3
20260507035526 73 0.0 0.0 0.00 0.00 0.00 93 1016.4
20260507034025 73 0.0 0.0 0.00 0.00 0.00 93 1016.4
20260507032524 0 0.0 0.0 0.00 0.00 0.00 92 1016.4
20260507031023 73 0.0 0.0 0.00 0.00 0.00 92 1016.5
20260507025522 74 0.0 0.0 0.00 0.00 0.00 92 1016.7
20260507024022 74 0.0 0.0 0.00 0.00 0.00 91 1016.8
20260507022521 0 0.0 0.0 0.00 0.00 0.00 91 1016.8
20260507021019 0 0.0 0.0 0.00 0.00 0.00 91 1016.9
20260507015518 0 0.0 0.0 0.00 0.00 0.00 91 1017.0
20260507014017 74 0.0 0.0 0.00 0.00 0.00 90 1017.0
20260507012516 74 0.0 0.0 0.00 0.00 0.00 90 1017.1
20260507011015 0 0.0 0.0 0.00 0.00 0.00 90 1017.1
20260507005514 0 0.0 0.0 0.00 0.00 0.00 90 1017.3
20260507004013 75 0.0 0.0 0.00 0.00 0.00 90 1017.4
20260507002512 0 0.0 0.0 0.00 0.00 0.00 90 1017.4
20260507001011 0 0.0 0.0 0.00 0.00 0.00 90 1017.4
20260506235511 0 0.0 0.0 0.00 0.00 0.00 89 1017.4
20260506234010 0 0.0 0.0 0.00 0.00 0.00 89 1017.4
20260506232509 76 0.0 0.0 0.00 0.00 0.00 89 1017.3
20260506231008 76 0.0 0.0 0.00 0.00 0.00 89 1017.2
20260506225507 0 0.0 0.0 0.00 0.00 0.00 87 1016.8